EN

Hourly Weather Klaipeda

Today, 12 June, Saturday

Time Temperature Precipitation Wind Pressure Humidity
00:00 +14°C° 0 mm 2 mps 759 mmHg 82%
01:00 +13°C° 0 mm 3 mps 759 mmHg 82%
02:00 +13°C° 0 mm 3 mps 758 mmHg 84%
03:00 +13°C° 0 mm 3 mps 758 mmHg 86%
04:00 +13°C° 0 mm 4 mps 757 mmHg 88%
05:00 +15°C° 0 mm 4 mps 757 mmHg 85%
06:00 +16°C° 0 mm 5 mps 757 mmHg 83%
07:00 +17°C° 0 mm 6 mps 756 mmHg 80%
08:00 +17°C° 0.2 mm 6 mps 756 mmHg 79%
09:00 +18°C° 0.2 mm 7 mps 756 mmHg 77%
10:00 +18°C° 0.2 mm 7 mps 755 mmHg 76%
11:00 +17°C° 1.9 mm 7 mps 755 mmHg 83%
12:00 +16°C° 1.9 mm 7 mps 755 mmHg 90%
13:00 +14°C° 1.9 mm 6 mps 754 mmHg 97%
14:00 +14°C° 0.5 mm 7 mps 754 mmHg 96%
15:00 +14°C° 0.5 mm 7 mps 754 mmHg 94%
16:00 +14°C° 0.5 mm 7 mps 753 mmHg 93%
17:00 +14°C° 0 mm 7 mps 753 mmHg 91%
18:00 +14°C° 0 mm 7 mps 753 mmHg 90%
19:00 +14°C° 0 mm 7 mps 752 mmHg 88%
20:00 +12°C° 0 mm 7 mps 752 mmHg 89%
21:00 +11°C° 0 mm 6 mps 752 mmHg 90%
22:00 +11°C° 0 mm 6 mps 752 mmHg 90%
23:00 +11°C° 0 mm 6 mps 752 mmHg 91%

Tomorrow, 13 June, Sunday

Time Temperature Precipitation Wind Pressure Humidity
00:00 +10°C° 0 mm 6 mps 752 mmHg 91%
01:00 +10°C° 0 mm 6 mps 752 mmHg 92%
02:00 +11°C° 0.1 mm 7 mps 752 mmHg 91%
03:00 +11°C° 0.1 mm 7 mps 752 mmHg 91%
04:00 +12°C° 0.1 mm 7 mps 753 mmHg 90%
05:00 +12°C° 0.1 mm 8 mps 753 mmHg 89%
06:00 +12°C° 0.1 mm 8 mps 754 mmHg 88%
07:00 +13°C° 0.1 mm 9 mps 755 mmHg 87%
08:00 +15°C° 0 mm 9 mps 755 mmHg 81%
09:00 +16°C° 0 mm 9 mps 756 mmHg 74%
10:00 +17°C° 0 mm 9 mps 757 mmHg 67%
11:00 +17°C° 0 mm 9 mps 758 mmHg 62%
12:00 +18°C° 0 mm 10 mps 758 mmHg 57%
13:00 +18°C° 0 mm 10 mps 759 mmHg 52%
14:00 +18°C° 0 mm 10 mps 759 mmHg 53%
15:00 +17°C° 0 mm 10 mps 760 mmHg 55%
16:00 +17°C° 0 mm 9 mps 761 mmHg 56%
17:00 +16°C° 0 mm 8 mps 761 mmHg 58%
18:00 +14°C° 0 mm 7 mps 762 mmHg 61%
19:00 +12°C° 0 mm 7 mps 762 mmHg 63%
20:00 +11°C° 0 mm 6 mps 763 mmHg 69%
21:00 +10°C° 0 mm 5 mps 763 mmHg 76%
22:00 +8°C° 0 mm 5 mps 763 mmHg 82%
23:00 +8°C° 0 mm 4 mps 764 mmHg 83%

Day after tomorrow, 14 June, Monday

Time Temperature Precipitation Wind Pressure Humidity
00:00 +9°C° 0 mm 3 mps 764 mmHg 83%
01:00 +8°C° 0 mm 3 mps 764 mmHg 84%
02:00 +8°C° 0 mm 2 mps 764 mmHg 81%
03:00 +9°C° 0 mm 2 mps 764 mmHg 78%
04:00 +10°C° 0 mm 1 mps 764 mmHg 75%
05:00 +12°C° 0 mm 1 mps 764 mmHg 68%
06:00 +14°C° 0 mm 2 mps 764 mmHg 62%
07:00 +16°C° 0 mm 2 mps 764 mmHg 55%
08:00 +17°C° 0 mm 3 mps 765 mmHg 54%
09:00 +18°C° 0 mm 3 mps 765 mmHg 53%
10:00 +19°C° 0 mm 4 mps 765 mmHg 53%
11:00 +19°C° 0 mm 4 mps 765 mmHg 54%
12:00 +20°C° 0 mm 4 mps 765 mmHg 56%
13:00 +20°C° 0 mm 5 mps 764 mmHg 58%
14:00 +19°C° 0 mm 5 mps 764 mmHg 60%
15:00 +19°C° 0 mm 5 mps 764 mmHg 62%
16:00 +19°C° 0 mm 4 mps 763 mmHg 65%
17:00 +18°C° 0 mm 4 mps 763 mmHg 70%
18:00 +17°C° 0 mm 4 mps 763 mmHg 76%
19:00 +15°C° 0 mm 4 mps 763 mmHg 81%
20:00 +14°C° 0 mm 4 mps 763 mmHg 84%
21:00 +13°C° 0 mm 5 mps 763 mmHg 88%
22:00 +12°C° 0 mm 5 mps 762 mmHg 91%
23:00 +12°C° 0 mm 5 mps 762 mmHg 91%

15 June, Tuesday

Time Temperature Precipitation Wind Pressure Humidity
00:00 +13°C° 0 mm 5 mps 762 mmHg 91%
01:00 +13°C° 0 mm 6 mps 762 mmHg 91%
02:00 +13°C° 0 mm 6 mps 761 mmHg 90%
03:00 +14°C° 0 mm 6 mps 761 mmHg 89%
04:00 +14°C° 0 mm 6 mps 761 mmHg 88%
05:00 +15°C° 0.1 mm 6 mps 761 mmHg 88%
06:00 +15°C° 0.1 mm 6 mps 761 mmHg 87%
07:00 +16°C° 0.1 mm 6 mps 762 mmHg 86%
08:00 +16°C° 0.3 mm 6 mps 762 mmHg 89%
09:00 +16°C° 0.3 mm 5 mps 762 mmHg 93%
10:00 +15°C° 0.3 mm 5 mps 762 mmHg 96%
11:00 +16°C° 0 mm 5 mps 762 mmHg 89%
12:00 +17°C° 0 mm 5 mps 762 mmHg 82%
13:00 +17°C° 0 mm 5 mps 762 mmHg 76%
14:00 +17°C° 0 mm 5 mps 762 mmHg 70%
15:00 +17°C° 0 mm 5 mps 762 mmHg 65%
16:00 +16°C° 0 mm 5 mps 763 mmHg 60%
17:00 +15°C° 0 mm 4 mps 763 mmHg 67%
18:00 +15°C° 0 mm 4 mps 763 mmHg 74%
19:00 +14°C° 0 mm 4 mps 763 mmHg 81%
20:00 +13°C° 0 mm 4 mps 763 mmHg 85%
21:00 +12°C° 0 mm 4 mps 763 mmHg 88%
22:00 +11°C° 0 mm 4 mps 763 mmHg 91%
23:00 +11°C° 0 mm 4 mps 763 mmHg 92%

16 June, Wednesday

Time Temperature Precipitation Wind Pressure Humidity
00:00 +11°C° 0 mm 4 mps 763 mmHg 92%
01:00 +11°C° 0 mm 4 mps 763 mmHg 92%
02:00 +11°C° 0 mm 4 mps 763 mmHg 93%
03:00 +12°C° 0 mm 3 mps 764 mmHg 93%
04:00 +12°C° 0 mm 3 mps 764 mmHg 94%
05:00 +14°C° 0 mm 3 mps 764 mmHg 87%
06:00 +16°C° 0 mm 3 mps 764 mmHg 80%
07:00 +18°C° 0 mm 3 mps 764 mmHg 74%
08:00 +19°C° 0 mm 3 mps 764 mmHg 68%
09:00 +20°C° 0 mm 3 mps 765 mmHg 62%
10:00 +21°C° 0 mm 3 mps 765 mmHg 57%
11:00 +21°C° 0 mm 3 mps 765 mmHg 56%
12:00 +21°C° 0 mm 3 mps 765 mmHg 54%
13:00 +21°C° 0 mm 3 mps 765 mmHg 53%
14:00 +21°C° 0 mm 3 mps 766 mmHg 54%
15:00 +20°C° 0 mm 3 mps 766 mmHg 55%
16:00 +20°C° 0 mm 2 mps 766 mmHg 56%
17:00 +19°C° 0 mm 2 mps 766 mmHg 63%
18:00 +18°C° 0 mm 2 mps 766 mmHg 70%
19:00 +16°C° 0 mm 1 mps 766 mmHg 76%
20:00 +15°C° 0 mm 1 mps 766 mmHg 78%
21:00 +14°C° 0 mm 1 mps 766 mmHg 80%
22:00 +11°C° 0 mm 0 mps 766 mmHg 82%
23:00 +12°C° 0 mm 1 mps 766 mmHg 82%

17 June, Thursday

Time Temperature Precipitation Wind Pressure Humidity
00:00 +12°C° 0 mm 2 mps 767 mmHg 81%
01:00 +12°C° 0 mm 2 mps 767 mmHg 81%
02:00 +11°C° 0 mm 3 mps 767 mmHg 82%
03:00 +11°C° 0 mm 3 mps 767 mmHg 83%
04:00 +11°C° 0 mm 3 mps 767 mmHg 84%
05:00 +13°C° 0 mm 3 mps 767 mmHg 79%
06:00 +16°C° 0 mm 3 mps 767 mmHg 75%
07:00 +19°C° 0 mm 3 mps 767 mmHg 70%
08:00 +20°C° 0 mm 3 mps 767 mmHg 66%
09:00 +21°C° 0 mm 3 mps 767 mmHg 62%
10:00 +22°C° 0 mm 3 mps 767 mmHg 58%
11:00 +24°C° 0 mm 3 mps 767 mmHg 56%
12:00 +25°C° 0 mm 3 mps 767 mmHg 54%
13:00 +25°C° 0 mm 2 mps 767 mmHg 52%
14:00 +25°C° 0 mm 2 mps 767 mmHg 53%
15:00 +25°C° 0 mm 2 mps 767 mmHg 54%
16:00 +25°C° 0 mm 2 mps 767 mmHg 55%
17:00 +24°C° 0 mm 2 mps 767 mmHg 63%
18:00 +23°C° 0 mm 2 mps 767 mmHg 70%
19:00 +21°C° 0 mm 2 mps 766 mmHg 77%
20:00 +20°C° 0 mm 3 mps 766 mmHg 81%
21:00 +18°C° 0 mm 4 mps 766 mmHg 85%
22:00 +17°C° 0 mm 4 mps 766 mmHg 89%
23:00 +17°C° 0 mm 4 mps 766 mmHg 90%
Show more